Volver al catálogo

COSMOS 2251 DEB

ActivoVLEO
NORAD 35602·DEBRIS·🇷🇺 Russia

Lanzado Jun 16, 1993 desde Plesetsk Cosmodrome

Loading…

Próximos Pases (próximas 24 horas)

TLE

EnvejeciendoSource: Space-Track

Época: Sep 13, 2026, 09:40 UTC

1 35602U 93036AMV 26256.40333277  .00015261  00000-0  27901-3 0  9994
2 35602  73.9904 305.7780 0070418 297.2624  74.6192 15.46573880943239

Sigue COSMOS 2251 DEB en tiempo real con AllMySat

Download on the App Store